Flag for Colombia Weather past 2 weeks in Cali, Colombia

Now
77 °F

Passing clouds.


Feels Like: 79 °F
Forecast: 64 / 83 °F
Wind: 17 mph from North

Location: Cali / Alfonso Bonillaaragon

Current Time: Jul 25, 2014 at 8:57:32 PM

Latest Report: Jul 25, 2014 at 8:00 PM


Visibility: N/A

Pressure: 29.89 "Hg

Humidity: 65%

Dew point: 64 °F

Location of CaliLocation

Historic Weather in Cali — Graph

°F

Cali temperature yesterday

Maximum temperature yesterday: 91 °F (at 1:00 PM)
Minimum temperature yesterday: 64 °F (at 5:00 AM)
Average temperature yesterday: 78 °F

Past Weeks' High & Low Weather Summary

 TemperatureHumidityPressure
High93 °F (Jul 18, 3:00 PM)94% (Jul 11, 1:00 AM)30.04 "Hg (Jul 11, 1:00 AM)
Low64 °F (Jul 19, 5:00 AM)32% (Jul 18, 3:00 PM)29.77 "Hg (Jul 24, 4:00 PM)
Average78 °F70%29.93 "Hg
* Reported Jul 10 7:00 PM — Jul 25 7:00 PM, Cali, Weather by CustomWeather, © 2014

Note: Actual official high and low records may vary slightly from our data, if they occured in-between our weather recording intervals... More about our weather records

Advertising

Cali weather history for previous 24 hours

 ConditionsComfort  
Time TempWeatherWind HumidityBarometerVisibility
7:00 PM
Jul 25
79 °FPassing clouds.7 mph61%29.86 "HgN/A
6:00 PM82 °FScattered clouds.12 mph58%29.82 "HgN/A
5:00 PM90 °FScattered clouds.14 mph46%29.79 "HgN/A
4:00 PM93 °FScattered clouds.9 mph39%29.79 "HgN/A
3:00 PM93 °FScattered clouds.14 mph39%29.81 "HgN/A
2:00 PM93 °FScattered clouds.5 mph41%29.85 "HgN/A
1:00 PM90 °FScattered clouds.3 mph43%29.88 "HgN/A
12:00 PM88 °FPassing clouds.5 mph46%29.91 "HgN/A
11:00 AM86 °FPassing clouds.5 mph52%29.95 "HgN/A
10:00 AM82 °FScattered clouds.No wind58%29.97 "HgN/A
9:00 AM79 °FScattered clouds.3 mph65%29.98 "HgN/A
8:00 AM73 °FPartly sunny.No wind74%29.97 "HgN/A
7:00 AM70 °FScattered clouds.No wind83%29.96 "HgN/A
6:00 AM68 °FPassing clouds.3 mph94%29.96 "Hg6 mi
5:00 AM68 °FPassing clouds.No wind94%29.92 "HgN/A
4:00 AM70 °FPassing clouds.No wind88%29.91 "HgN/A
3:00 AM70 °FPassing clouds.No wind88%29.90 "HgN/A
2:00 AM70 °FPassing clouds.3 mph88%29.90 "HgN/A
1:00 AM72 °FPassing clouds.7 mph88%29.92 "HgN/A
12:00 AM73 °FPassing clouds.8 mph83%29.93 "HgN/A
11:00 PM
Jul 24
73 °FPassing clouds.6 mph78%29.92 "HgN/A
10:00 PM77 °FPassing clouds.9 mph69%29.91 "HgN/A
9:00 PM77 °FPassing clouds.7 mph69%29.88 "HgN/A
8:00 PM79 °FPassing clouds.12 mph65%29.85 "HgN/A
Weather by CustomWeather, © 2014

See weather overviewHow to use our weather pages